#timestamp,LO_Frequency,Hit,StdDev 
1697479215.4,286047004.0,N
1697479235.2,286047005.9,P
1697479255.0,286047001.6,N
1697479255.9,286047001.6,N
1697479275.8,286047002.0,N
1697479295.6,286047001.9,N
1697479315.4,286047002.7,N
1697479335.3,286047000.1,N
1697479355.1,286047000.9,N
1697479375.9,286047000.4,N
1697479395.7,286046999.9,N
1697479415.5,286047000.2,N
1697479435.4,286046999.7,N
1697479455.2,286047001.9,N
1697479475.0,286047003.9,N
1697479476.0,286047003.9,N
1697479495.8,286047003.9,N
1697479515.6,286047003.5,N
1697479535.5,286047005.4,Y
1697479555.3,286047003.2,P
1697479575.1,286047005.7,P
1697479595.9,286047004.7,P
1697479615.7,286047007.1,Y
1697479635.6,286047001.9,P
1697479655.4,286047006.0,P
1697479675.2,286047007.2,P
1697479695.1,286047008.4,Y
1697479696.0,286047008.4,P
1697479715.8,286047005.6,P
1697479735.7,286047003.2,N
1697479755.5,286047002.9,N
1697479775.3,286047003.3,N
1697479795.2,286047004.0,N
1697479815.9,286047003.9,N
1697479835.7,286047001.5,N
1697479855.6,286047001.8,N
1697479875.4,286047002.6,N
1697479895.2,286047002.5,N
1697479915.1,286047002.3,N
1697479916.0,286047002.3,N
1697479935.8,286047002.5,N
1697479955.7,286047004.0,N
1697479975.5,286047003.8,N
1697479995.3,286047004.1,N
1697480015.2,286047004.2,N
1697480035.0,286047004.0,N
1697480035.9,286047004.0,N
1697480055.8,286047003.5,N
1697480075.6,286047003.4,N
1697480095.4,286047003.3,N
1697480115.3,286047003.3,N
1697480135.1,286047006.0,Y
1697480155.8,286047002.4,P
1697480175.7,286047002.0,P
1697480195.5,286047003.4,P
1697480215.4,286047006.0,Y
1697480235.2,286047000.0,P
1697480255.0,286047000.1,N
1697480255.9,286047000.1,N
1697480275.8,286047002.6,N
1697480295.6,286047002.7,N
1697480315.5,286047001.9,N
1697480335.3,286047001.8,N
1697480355.1,286047002.5,N
1697480375.9,286047002.7,N
1697480395.7,286046999.8,N
1697480415.5,286047000.4,N
1697480435.4,286047000.0,N
1697480455.2,286047000.3,N
1697480475.0,286047001.9,N
1697480476.0,286047001.9,N
1697480495.8,286047003.7,Y
1697480515.6,286047003.8,P
1697480535.5,286047005.7,P
1697480555.3,286047003.2,N
1697480575.1,286047005.6,Y
1697480595.9,286047001.6,P
1697480615.7,286046999.7,N
1697480635.6,286047001.1,N
1697480655.4,286047001.2,N
1697480675.2,286046998.3,N
1697480695.1,286046998.2,N
1697480696.0,286046998.2,N
1697480715.8,286047000.6,N
1697480735.6,286047002.4,N
1697480755.5,286047002.4,N
1697480775.3,286047002.4,N
1697480795.2,286047003.8,N
1697480815.9,286047004.3,N
1697480835.7,286047003.2,N
1697480855.6,286047004.3,N
1697480875.4,286047003.3,N
1697480895.2,286047005.6,N
1697480915.1,286047005.6,N
1697480916.0,286047005.6,N
1697480935.8,286047005.3,N
1697480955.7,286047007.6,Y
1697480975.5,286047001.7,P
1697480995.3,286047002.6,P
1697481015.2,286047002.3,P
1697481035.0,286047000.2,N
1697481035.9,286047000.2,N
1697481055.8,286047000.3,N
1697481075.6,286047000.2,N
1697481095.4,286047000.0,N
1697481115.3,286047002.4,N
1697481135.1,286046999.9,N
1697481155.9,286047000.6,N
1697481175.7,286047000.7,N
1697481195.5,286046998.2,N
1697481215.4,286047000.8,N
1697481235.2,286047001.1,N
1697481255.0,286047000.5,N
1697481256.0,286047000.5,N
1697481275.8,286047000.1,N
1697481295.6,286047001.0,N
1697481315.5,286046999.9,N
1697481335.3,286047002.6,N
1697481355.1,286047002.7,N
1697481375.9,286047000.1,N
1697481395.7,286047002.5,N
1697481415.6,286047002.6,N
1697481435.4,286047002.5,N
1697481455.2,286047000.1,N
1697481475.1,286046999.7,N
1697481476.0,286046999.7,N
1697481495.8,286047002.7,N
1697481515.6,286047002.4,N
1697481535.5,286047001.9,N
1697481555.3,286047001.9,N
1697481575.2,286046999.8,N
1697481595.9,286046999.7,N
1697481615.7,286046999.7,N
1697481635.6,286047001.6,N
1697481655.4,286047001.7,N
1697481675.2,286047001.5,N
1697481695.1,286047002.1,N
1697481696.0,286047002.1,N
1697481715.8,286047001.8,N
1697481735.7,286047001.8,N
1697481755.5,286047001.7,N
1697481775.3,286047003.9,Y
1697481795.2,286047001.5,P
1697481815.0,286047001.3,P
1697481815.9,286047001.3,P
1697481835.8,286047001.4,Y
1697481855.6,286047001.5,P
1697481875.4,286047001.8,P
1697481895.3,286047002.0,P
1697481915.1,286047001.5,Y
1697481935.8,286047000.4,P
1697481955.7,286047000.9,N
1697481975.5,286047002.8,P
1697481995.4,286047002.0,N
1697482015.2,286047004.0,Y
1697482035.0,286047002.1,P
1697482035.9,286047002.1,P
1697482055.8,286047001.9,P
1697482075.6,286047002.6,Y
1697482095.5,286047001.1,P
1697482115.3,286047000.4,N
1697482135.1,286047000.1,N
1697482155.9,286047002.1,N
1697482175.7,286047002.5,Y
1697482195.5,286047000.2,P
1697482215.4,286047000.1,N
1697482235.2,286047000.9,N
1697482255.1,286047000.6,N
1697482256.0,286047000.6,N
1697482275.8,286047000.9,N
1697482295.6,286047000.6,N
1697482315.5,286047000.6,N
1697482335.3,286047000.2,N
1697482355.1,286047002.6,Y
1697482375.9,286047000.9,P
1697482395.7,286047002.6,P
1697482415.6,286047001.6,N
1697482435.4,286047001.4,N
1697482455.2,286047004.1,Y
1697482475.1,286047004.4,P
1697482476.0,286047004.4,N
1697482495.8,286047001.4,N
1697482515.7,286047002.1,N
1697482535.5,286047001.5,N
1697482555.3,286047004.4,Y
1697482575.2,286047000.6,P
1697482595.0,286047001.2,N
1697482595.9,286047001.2,N
1697482615.7,286047002.6,Y
1697482635.6,286047002.4,P
1697482655.4,286047003.9,P
1697482675.3,286047003.4,P
1697482695.1,286047003.4,Y
1697482715.8,286047000.3,P
1697482735.7,286046998.1,N
1697482755.5,286046999.1,N
1697482775.3,286046999.5,N
1697482795.2,286046999.3,N
